Vertical_Velocity
-0 1 -0 -0 -1 -1 -0 -1 -0 -0 -2 -3 -2 -0 -1 0 -0 -1 -2 -1 -3 -1 -2 -3 -3 -3 -4 -3 -1 -3 -3 -5 -4 -3 -3 -4 -3 -2 -2 -0 -2 -1 -2 1 2 -1 -3
-3 -1 -0 -0 -2 -1 1 0 -1 -2 -2 -1 -1 -3 -1 -1 -2 -1 -1 -1 -1 -1 -2 -3 -2 -2 -3 -2 -3 -3 -6 -5 -3 -5 -4 -3 -5 -3 -1 2 -0 0 -1 -2 -1 5 1
1 -3 -4 -0 1 -1 -1 0 1 -1 -0 -1 -0 -0 -2 -2 -0 -1 -1 -0 -1 -1 -1 -3 -2 -2 -3 -4 -2 -3 -2 -2 -2 -3 -2 -5 -3 -4 -2 -3 -1 -1 -1 0 2 -1 3
-2 -2 -1 -2 -4 -2 -1 -1 -2 -0 -0 1 -1 -1 -1 -0 -1 -2 -1 1 -1 -1 -2 -1 -2 0 -2 -2 -4 -4 -7 -6 -5 -7 -7 -5 -3 -6 -3 1 -5 -4 -1 0 4 2 -4
-2 -1 0 0 -0 -2 -2 1 -1 -0 -1 -1 0 -0 0 1 -0 -1 -1 -3 -1 0 -4 0 -1 -1 -2 -2 -4 -3 -3 -1 -3 -3 -4 -1 5 4 -1 -2 -2 -1 -2 0 -4 1 0
0 2 1 -2 -0 1 0 -1 -0 1 1 2 1 1 -0 0 1 1 -1 1 -0 -3 -2 -0 0 -3 -3 -1 -2 -3 0 -1 0 -1 1 -2 -2 -10 -7 -0 -0 -0 -1 -0 1 -1 3
-0 -1 1 2 -1 -3 -1 2 -0 -1 -0 -3 -2 -2 -0 -0 2 1 1 1 -0 2 2 1 -1 -1 -2 -1 -2 -2 -2 -3 -5 -6 -2 -7 -6 1 -4 -6 -2 -1 -3 -1 2 0 2
-1 0 0 -2 -1 0 -2 -1 0 -0 -0 1 -1 -0 -1 0 0 1 2 2 -2 -1 1 -0 -0 1 -1 -2 -1 -2 -2 -1 -0 -1 -1 1 -1 -1 -4 -3 -1 1 1 1 2 2 2
1 -2 -2 -0 -0 -1 0 -1 -0 1 1 -0 1 1 2 -2 0 -0 0 1 1 -3 0 1 -1 0 0 -1 -1 -1 -2 0 1 1 -1 -3 -3 -1 -1 1 1 1 2 1 3 2 2
-1 -1 0 -0 -1 1 -3 -2 0 -3 2 4 3 4 1 1 1 -3 -1 0 -1 0 0 -6 0 -3 -2 -1 -1 0 -1 -2 -1 2 1 1 -3 -1 0 -1 -0 -0 -1 0 0 1 2
-2 0 0 0 0 -1 -0 -1 0 1 -1 -4 0 1 -1 -1 0 -2 -0 1 -0 -4 0 -2 -3 -1 -2 -0 -0 0 -1 -1 -2 1 -0 -0 2 2 1 -1 -0 -2 -0 -1 0 2 2
1 -1 -0 -0 -1 1 -1 -1 -1 1 -0 1 4 -3 -2 -1 1 5 -1 -3 -0 -2 -5 -3 -1 -1 -0 0 -1 -1 2 0 -2 1 1 -3 -1 -2 -5 -0 1 -1 -1 0 -0 -1 3
-1 0 1 -0 1 2 0 -0 -3 -2 -0 2 3 -0 -0 3 0 1 -1 -2 -3 -1 -1 -3 -3 -4 -1 -1 -1 -1 0 1 1 -1 6 1 1 -0 0 -0 -1 1 5 0 -0 -0 -2
-0 -1 0 -0 -0 3 1 0 0 0 -0 2 2 -3 0 -1 -1 -1 2 2 -2 1 -1 -1 -1 -1 0 0 1 -2 -3 -2 -1 -1 -2 4 -0 3 -2 -2 -1 -2 1 -3 -3 -1 -2
-1 -2 -0 0 1 2 0 -0 1 -0 -1 -0 -0 -5 -0 -4 1 -0 -1 -2 -0 -1 1 1 -0 0 1 -2 -1 -1 0 -1 -1 -1 -4 -1 1 -3 1 -3 0 1 -0 1 1 -2 1
-0 -0 -2 1 -1 -1 2 0 -0 1 1 -0 1 -3 0 -2 -3 -3 -2 -2 -3 -1 -1 -1 -1 2 1 -0 1 -2 -0 -1 -0 -1 -2 -3 4 -4 -1 -1 -1 -1 1 3 1 -0 -2
1 -2 -2 -1 1 -1 1 -1 -2 0 -0 0 -0 -2 -1 -3 1 -1 -3 -0 1 -0 -1 -1 -0 -1 -1 1 0 -0 -1 0 -0 -2 -3 -2 -0 3 -6 2 1 -1 1 2 -1 -2 -0
-0 -0 -2 -1 -1 0 1 -1 1 0 -0 0 -0 0 -2 2 -1 -3 1 -3 -3 -1 -3 -2 -2 -0 1 -1 3 0 -0 -1 1 -1 -1 -2 1 0 0 -2 2 -1 -6 2 0 -0 -1
-1 1 -4 2 -1 -1 -1 -1 0 -2 4 1 -1 -4 -2 -1 0 -1 1 1 -2 -1 1 1 1 -0 1 1 -2 2 -1 1 -1 -1 -1 -2 2 -4 4 -1 -2 -2 -3 -4 -1 0 -2
-1 2 -2 2 3 1 1 -3 0 -1 5 -1 0 -2 -4 0 -2 -0 -1 2 1 -0 1 1 -0 -0 2 1 -3 1 1 0 0 1 -1 -0 2 -1 0 -5 1 -2 -3 -1 0 0 -1
0 -2 -0 2 0 3 1 -0 -2 -1 1 1 -2 3 2 -2 0 -2 0 0 -1 2 0 -3 3 -0 -2 0 1 -1 3 1 -1 1 0 -3 5 -4 3 0 -0 4 -2 -0 -4 -2 1
0 1 0 1 0 2 4 -4 -4 -1 2 2 -3 -5 -0 2 -3 -3 -3 -0 -3 -5 1 1 -2 -2 -2 -0 -1 5 0 -6 1 1 -0 0 1 2 1 0 3 5 -2 -2 -8 -5 -2
-0 -0 1 3 4 1 2 -3 2 -4 -0 2 1 0 1 -1 -0 -1 -0 -1 -1 -1 -5 -5 -3 1 -3 -2 -1 -2 -0 2 -0 -1 0 -0 -4 1 12 -2 3 3 -0 -5 -15 1 -7
-0 3 -0 4 -2 2 -2 -4 4 -2 -1 -3 1 2 -1 -4 1 -5 -3 -1 -4 -3 1 -5 0 -4 -1 -5 2 -1 -2 -0 -0 -3 -3 0 -3 -6 3 -2 6 -3 -1 -8 3 2 2
-1 -1 -1 6 4 3 -0 -2 3 -2 1 -0 3 2 -1 1 -4 -3 -3 -1 -4 -4 -6 -1 -8 -5 -2 -2 2 5 1 2 -0 4 -0 -1 -0 -6 -6 -0 5 15 4 -5 -1 -2 -1
0 1 -3 1 3 2 -0 5 1 0 3 -1 -0 2 2 -1 -0 -4 -2 1 1 -1 -4 -2 -5 -4 -1 -3 -1 -5 6 4 4 3 3 -2 -5 -1 -4 -11 -9 11 7 3 -0 -15 -1
-5 0 0 1 -1 -6 4 7 3 4 2 -0 0 3 1 -1 -1 -5 -1 -1 0 -1 3 -1 -7 -3 -9 -3 -4 -5 -0 -5 -0 1 0 -1 0 1 1 -12 -1 1 12 3 -5 7 2
2 -1 1 -1 2 4 4 2 1 -1 5 2 -2 1 1 3 1 1 2 1 -0 -2 1 5 2 2 -1 -7 -4 -1 -3 -1 -6 -6 -4 -3 -3 2 -0 -2 -13 0 -2 -1 2 -4 -10
2 1 0 1 1 1 3 1 3 -3 3 3 -1 -1 2 6 -3 -2 -2 3 0 -0 -2 8 -3 -2 -2 2 4 -1 1 0 1 -4 5 -19 -5 -5 -1 2 -13 -0 -7 -1 -2 -5 5
Height
5857 5856 5855 5853 5852 5850 5849 5847 5845 5844 5843 5841 5839 5836 5834 5831 5828 5824 5820 5815 5811 5806 5801 5796 5791 5786 5780 5774 5768 5761 5753 5746 5738 5731 5722 5712 5704 5696 5688 5682 5676 5672 5669 5667 5665 5665 5671
5856 5855 5855 5854 5852 5850 5848 5847 5846 5844 5842 5840 5837 5835 5832 5829 5826 5823 5819 5815 5811 5806 5800 5796 5790 5785 5779 5774 5767 5760 5752 5744 5737 5729 5721 5712 5703 5696 5689 5682 5674 5669 5665 5663 5663 5663 5666
5856 5856 5855 5853 5852 5851 5850 5847 5845 5843 5841 5839 5836 5833 5831 5828 5824 5821 5818 5814 5810 5805 5800 5795 5790 5784 5779 5773 5765 5758 5751 5743 5736 5729 5720 5713 5704 5695 5688 5681 5674 5668 5665 5662 5661 5661 5662
5855 5854 5852 5851 5850 5849 5847 5846 5844 5842 5839 5837 5835 5832 5829 5826 5823 5820 5816 5813 5809 5804 5800 5795 5790 5785 5779 5772 5765 5756 5748 5743 5737 5727 5720 5713 5705 5695 5688 5682 5675 5670 5666 5663 5661 5659 5661
5851 5850 5849 5849 5848 5846 5845 5844 5842 5840 5838 5835 5832 5830 5827 5824 5821 5818 5815 5811 5808 5803 5799 5794 5790 5785 5779 5772 5764 5757 5751 5745 5737 5729 5722 5715 5708 5699 5690 5683 5676 5671 5667 5663 5659 5658 5659
5849 5849 5847 5846 5845 5844 5843 5841 5840 5837 5835 5832 5830 5827 5824 5821 5818 5816 5812 5809 5805 5802 5797 5793 5789 5785 5780 5772 5764 5757 5751 5745 5738 5730 5725 5716 5708 5699 5691 5684 5679 5672 5667 5663 5660 5658 5658
5847 5845 5844 5844 5842 5841 5839 5837 5835 5833 5831 5828 5826 5824 5821 5818 5815 5812 5810 5807 5805 5801 5796 5792 5787 5781 5775 5770 5764 5758 5751 5744 5737 5731 5724 5715 5709 5702 5693 5685 5679 5673 5667 5662 5659 5658 5657
5844 5843 5842 5840 5839 5837 5835 5833 5831 5829 5827 5824 5822 5819 5816 5814 5812 5809 5807 5804 5801 5798 5794 5789 5785 5780 5775 5770 5764 5757 5752 5746 5739 5733 5725 5718 5710 5703 5694 5687 5681 5674 5669 5664 5661 5659 5658
5840 5840 5839 5837 5835 5833 5831 5831 5828 5826 5823 5821 5818 5814 5811 5808 5806 5805 5802 5800 5797 5794 5791 5787 5782 5777 5773 5769 5763 5757 5751 5746 5739 5732 5725 5717 5711 5703 5697 5691 5684 5678 5673 5668 5664 5662 5660
5837 5836 5834 5833 5832 5829 5827 5826 5823 5822 5819 5816 5812 5808 5807 5804 5803 5799 5797 5795 5792 5789 5787 5784 5779 5775 5770 5764 5761 5755 5749 5745 5737 5732 5725 5718 5712 5707 5700 5693 5687 5681 5676 5671 5667 5665 5663
5834 5832 5830 5828 5826 5825 5823 5821 5819 5816 5814 5811 5807 5804 5801 5798 5795 5793 5792 5790 5787 5785 5782 5779 5775 5771 5766 5762 5757 5753 5748 5744 5739 5732 5727 5721 5715 5709 5702 5695 5689 5685 5678 5674 5671 5669 5667
5828 5827 5826 5824 5822 5819 5818 5816 5813 5809 5807 5803 5800 5799 5796 5793 5789 5787 5785 5783 5782 5781 5777 5774 5770 5767 5764 5759 5754 5750 5746 5741 5738 5735 5726 5721 5714 5709 5701 5696 5692 5687 5682 5679 5675 5673 5671
5822 5821 5820 5819 5816 5815 5813 5811 5808 5804 5801 5797 5794 5793 5790 5788 5785 5781 5779 5777 5777 5775 5773 5769 5766 5762 5759 5756 5752 5746 5742 5737 5733 5731 5727 5720 5713 5707 5705 5700 5694 5691 5688 5683 5680 5675 5674
5817 5816 5814 5813 5812 5810 5808 5804 5802 5799 5796 5792 5789 5787 5784 5782 5779 5776 5774 5772 5769 5768 5765 5764 5761 5758 5754 5751 5749 5743 5738 5733 5728 5725 5722 5717 5712 5706 5703 5700 5693 5689 5685 5682 5680 5678 5676
5812 5811 5809 5808 5808 5804 5802 5799 5796 5792 5788 5785 5782 5780 5777 5776 5774 5770 5770 5766 5763 5762 5760 5758 5756 5752 5749 5745 5742 5738 5733 5729 5724 5721 5719 5715 5712 5707 5701 5699 5697 5692 5689 5686 5684 5682 5679
5805 5805 5804 5803 5802 5800 5798 5794 5790 5786 5782 5778 5776 5773 5772 5772 5770 5767 5763 5762 5757 5755 5752 5751 5749 5746 5742 5739 5736 5732 5729 5725 5721 5717 5713 5712 5710 5706 5702 5699 5696 5693 5691 5689 5685 5684 5681
5797 5798 5797 5797 5795 5794 5792 5788 5785 5781 5778 5774 5770 5766 5767 5765 5765 5763 5759 5755 5752 5750 5746 5744 5743 5740 5736 5733 5731 5727 5724 5721 5717 5712 5709 5706 5707 5705 5699 5696 5695 5691 5689 5688 5685 5684 5682
5790 5790 5790 5789 5789 5788 5786 5783 5779 5775 5773 5768 5765 5762 5760 5759 5760 5757 5755 5751 5746 5743 5741 5739 5737 5733 5730 5727 5723 5720 5717 5714 5711 5706 5703 5701 5699 5699 5698 5694 5692 5691 5686 5686 5685 5683 5681
5782 5782 5782 5782 5781 5780 5779 5777 5773 5770 5767 5764 5761 5758 5756 5754 5753 5752 5751 5748 5743 5739 5735 5732 5730 5727 5724 5721 5718 5715 5711 5709 5706 5702 5697 5695 5694 5692 5693 5693 5689 5687 5686 5684 5684 5682 5678
5772 5773 5774 5774 5773 5773 5771 5770 5766 5764 5761 5758 5756 5754 5751 5750 5748 5745 5743 5741 5738 5734 5729 5724 5723 5720 5717 5714 5710 5707 5704 5701 5699 5697 5694 5688 5692 5689 5685 5685 5687 5685 5682 5680 5679 5678 5680
5763 5764 5765 5765 5764 5763 5762 5762 5761 5759 5756 5751 5751 5749 5747 5744 5741 5739 5736 5733 5730 5726 5723 5720 5717 5712 5708 5705 5702 5700 5698 5696 5694 5690 5689 5686 5685 5685 5681 5680 5680 5680 5678 5675 5674 5671 5668
5754 5754 5755 5757 5757 5756 5754 5753 5752 5751 5749 5746 5744 5742 5740 5738 5734 5732 5730 5727 5723 5719 5716 5712 5708 5704 5701 5698 5695 5693 5692 5690 5687 5687 5682 5681 5678 5680 5678 5674 5675 5675 5671 5669 5669 5664 5663
5744 5745 5747 5747 5748 5747 5746 5746 5744 5743 5741 5738 5736 5736 5734 5731 5728 5724 5722 5720 5716 5713 5711 5706 5701 5700 5696 5693 5690 5687 5685 5684 5680 5679 5678 5676 5673 5671 5676 5670 5670 5669 5664 5661 5659 5660 5658
5734 5735 5735 5737 5738 5739 5739 5738 5735 5735 5734 5730 5729 5728 5727 5725 5723 5717 5715 5713 5710 5707 5705 5701 5696 5692 5691 5687 5685 5684 5681 5679 5676 5675 5672 5670 5668 5665 5662 5662 5661 5656 5651 5648 5649 5647 5644
5724 5725 5724 5727 5728 5729 5728 5729 5728 5727 5725 5722 5720 5720 5719 5716 5715 5712 5708 5706 5704 5701 5698 5695 5692 5687 5684 5681 5679 5679 5678 5676 5673 5671 5668 5664 5661 5657 5653 5651 5648 5646 5640 5637 5634 5633 5630
5713 5714 5715 5716 5718 5719 5719 5718 5718 5718 5715 5714 5712 5711 5711 5709 5708 5706 5701 5698 5697 5694 5692 5689 5686 5682 5679 5675 5672 5669 5666 5666 5665 5663 5662 5659 5655 5649 5645 5640 5636 5633 5630 5626 5623 5620 5618
5701 5703 5705 5705 5705 5706 5708 5708 5708 5707 5706 5706 5704 5702 5702 5700 5698 5696 5693 5691 5689 5687 5684 5682 5678 5676 5672 5670 5666 5662 5658 5655 5652 5649 5645 5643 5638 5634 5630 5624 5623 5620 5617 5612 5607 5608 5599
5692 5693 5694 5694 5695 5696 5696 5696 5697 5697 5697 5696 5695 5694 5694 5692 5689 5687 5684 5683 5681 5679 5676 5675 5672 5669 5665 5662 5659 5655 5651 5649 5646 5641 5637 5631 5626 5621 5615 5610 5609 5605 5601 5597 5591 5583 5579
5680 5681 5682 5683 5684 5684 5685 5686 5687 5687 5687 5687 5685 5684 5683 5682 5679 5677 5674 5672 5671 5668 5666 5664 5661 5657 5654 5650 5647 5642 5639 5636 5633 5630 5623 5618 5614 5609 5603 5596 5590 5589 5583 5577 5571 5567 5562